Current weather by "City, St" or "zip code"  
 

Current Conditions: Clovis Municipal Airport, NM

Fair and Windy


47.0 F

Last Updated on Oct 24 2020, 9:56 am MDT
Humidity: 54%
Wind Speed: SW 27.6 G 32.2 mph
Barometer 30.08 in
Dewpoint: 30.9 F
Visibility: 10.00 mi
Precip: --
Heat Index: NA
Wind Chill: 38 F
Current conditions at:

Clovis Municipal Airport, NM (KCVN)

Lat: 34.42274 Lon: 103.0802

Local Radar Image active severe weather and emergency alerts image image weather storm and storm spotter reports image weather observation monitoring service image
Local
Radar
Active
Alerts
Storm Reports Obs
Monitoring

Sign-up For Email & Text Message Weather Alert Notification Services



Advertise Here

Observation History for Clovis Municipal Airport, NM


Time Wind
(mph)
Vis
(mi)
Weather Precip (in) Temperature (F) Relative
Humidity
Wind
Chill
(F)
Heat
Index
(F)
Pressure
Air Dwpt altimeter
(in)
sea level
(mb)
Rmks
9:56 am MDT SW 27.6 G 32.2 10.00 Fair and Windy -- 47.0 30.9 54% 38 NA 30.08 1019.3
8:56 am MDT SW 23.0 G 27.6 10.00 Fair and Breezy -- 41.0 28.0 60% 31 NA 30.11 1020.7
7:56 am MDT SW 12.7 10.00 Fair -- 33.0 25.0 72% 24 NA 30.13 1021.8
6:56 am MDT SW 6.9 10.00 Fair -- 29.0 24.1 82% 22 NA 30.15 1022.9
5:56 am MDT SW 8.1 10.00 Fair -- 29.0 25.0 85% 21 NA 30.16 1022.9
4:56 am MDT SW 5.8 10.00 Fair -- 28.0 23.0 81% 22 NA 30.18 1023.3
3:56 am MDT S 5.8 10.00 Fair -- 28.0 23.0 81% 22 NA 30.20 1023.7
2:56 am MDT S 4.6 10.00 Fair -- 29.0 23.0 78% 24 NA 30.23 1024.8
1:56 am MDT N 0.0 10.00 Fair -- 31.0 24.1 76% NA NA 30.25 1025.3
12:56 am MDT E 3.5 10.00 Fair -- 30.0 24.1 79% NA NA 30.27 1026.2
11:56 pm MDT NE 5.8 10.00 Fair -- 31.0 23.0 72% 25 NA 30.30 1027.4
10:56 pm MDT NE 6.9 10.00 Fair -- 31.0 23.0 72% 24 NA 30.31 1028.1
9:56 pm MDT NE 9.2 10.00 Fair -- 33.0 24.1 70% 25 NA 30.31 1028.3
8:56 pm MDT NE 6.9 5.00 Fair with Haze -- 34.0 24.1 67% 28 NA 30.31 1028.3
7:56 pm MDT E 6.9 8.00 Fair -- 36.0 24.1 62% 30 NA 30.31 1028.3
6:56 pm MDT E 6.9 10.00 Fair -- 39.0 25.0 57% 34 NA 30.30 1027.6
5:56 pm MDT NE 10.4 10.00 Fair -- 43.0 25.0 49% 37 NA 30.28 1026.5
4:56 pm MDT NE 12.7 10.00 Fair -- 46.0 25.0 44% 40 NA 30.28 1026.1
3:56 pm MDT NE 12.7 G 19.6 10.00 Fair -- 47.0 26.1 44% 41 NA 30.28 1025.8
2:56 pm MDT NE 13.8 G 20.7 10.00 Fair -- 47.0 26.1 44% 41 NA 30.29 1026.3
1:56 pm MDT NE 19.6 G 25.3 10.00 Fair -- 46.0 25.0 44% 38 NA 30.31 1026.8
12:56 pm MDT NE 20.7 G 31.1 10.00 Fair and Breezy -- 45.0 25.0 46% 37 NA 30.34 1027.6
11:56 am MDT NE 24.2 G 29.9 10.00 Fair and Breezy -- 42.0 25.0 51% 32 NA 30.35 1028.2
10:56 am MDT NE 21.9 G 33.4 10.00 Mostly Cloudy and Breezy -- 40.0 26.1 58% 30 NA 30.37 1028.7

Regional Weather Observation


Cannon Air Force Base / Clovis, NM (KCVS)

Fair
46.0 F

Tucumcari Municipal Airport, NM (KTCC)

Fair and Breezy
53.0 F

Hereford Municipal Airport, TX (KHRX)

Fair
46.0 F

Dumas, Moore County Airport, TX (KDUX)

Fair and Breezy
42.0 F

Plainview, Hale County Airport, TX (KPVW)

Fair
44.0 F

Amarillo, Amarillo International Airport, TX (KAMA)

Fair and Windy
47.0 F